Regional Weather Roundup
Issued by NWS Newport/Morehead, NC

Current Version | Previous Version | Text Only | Print | Product List | Glossary Off
Versions: 1 2 3 4 5 6 7 8 9 10 11 12 13 14 15 16 17 18 19 20 21 22 23 24 25 26 27 28 29 30 31 32 33 34 35 36 37 38 39 40 41 42 43 44 45 46 47 48 49 50
000 ASUS42 KMHX 251325 RWRMHX WEATHER ROUNDUP FOR EASTERN NORTH CAROLINA NATIONAL WEATHER SERVICE NEWPORT/MOREHEAD CITY NC 900 AM EDT WED APR 25 2018 NOTE: "FAIR" INDICATES FEW OR NO CLOUDS BELOW 12,000 FEET WITH NO SIGNIFICANT WEATHER AND/OR OBSTRUCTIONS TO VISIBILITY NCZ015>017-031-032-045>047-102-103-251400- NORTH COAST CITY SKY/WX TMP DP RH WIND PRES REMARKS EDENTON NOT AVBL ELIZABETH CITY PTSUNNY 65 63 93 SW13 29.75S KITTY HAWK FAIR 66 62 86 MISG 29.76S MANTEO FAIR 65 61 85 SW7 29.77S $$ NCZ045>047-081-094-103-104-251400- CENTRAL COAST CITY SKY/WX TMP DP RH WIND PRES REMARKS FRISCO FAIR 68 64 87 S9 29.79S $$ NCZ095-097-098-100-101-251400- SOUTHERN COAST CITY SKY/WX TMP DP RH WIND PRES REMARKS BEAUFORT FAIR 65 61 87 SW14 29.79R CEDAR ISLAND NOT AVBL JACKSONVILLE FAIR 65 60 84 SW10 29.77S PINEY ISLAND NOT AVBL WILMINGTON FAIR 66 58 75 SW12 29.77F $$ NCZ011>013-027>030-043-044-078>080-089-090>093-098-251400- COASTAL PLAIN CITY SKY/WX TMP DP RH WIND PRES REMARKS AHOSKIE LGT RAIN 61 61 100 CALM 29.75F CLINTON PTSUNNY 63 61 93 SW6 29.75F ELIZABETHTOWN CLOUDY 63 58 84 MISG 29.76F GOLDSBORO MOSUNNY 64 61 88 SW8 29.73F GREENVILLE PTSUNNY 64 61 88 SW6 29.77F HAVELOCK NOT AVBL KENANSVILLE FAIR 64 59 82 SW5 29.75F KINSTON PTSUNNY 63 61 94 SW9 29.76F NEW BERN FAIR 64 61 90 S8 29.78S RICHLANDS PTSUNNY 65 60 84 SW10 29.77F ROCKY MOUNT CLOUDY 62 60 93 SW5 29.74F WASHINGTON CLOUDY 65 61 86 SW6 29.76S WHITEVILLE FAIR 64 58 79 SW7 29.77F $$ AMZ130-135-150-152-154-156-158-170-250-252-270-ANZ085-086-088-633-658-670-251400- MARINE OBSERVATIONS STATION/POSITION TIME TEMP WIND PRES WAVE SWELL AIR SEA DIR/SP/G HT/PER HT/PER (UTC) (F) (DEG/KT/KT) (MB) (FT/S) (FT/S) CHESAPEAKE LIGHT NOT AVBL 64 E VA BEACH 1250 52 49 150/ 8/ 10 1008.7 12/10 11/10 DUCK 1300 62 50 180/ 10/ 12 1007.3 2 E DUCK 1300 52 N/A 7/11 5/11 OREGON INLET 1300 63 54 160/ 8/ 10 1008.1 13E OREGON INLT 1248 53 N/A 10/11 10/11 HATTERAS CG 1248 190/ 5/ 10 1008.3 DIAMOND BUOY 1310 70 70 220/ 12/ 16 1009.0 CAPE LOOKOUT 1300 210/ 7/ 11 1009.3 BEAUFORT LAB 1300 65 62 220/ 5/ 9 1008.9 30 SE NEW RVR IN 1308 67 67 230/ 12/ 16 1006.2 30 SE NEW RVR IN 1300 67 N/A 7/11 3/11 27 SE WRIGHTSVLE 1308 65 65 230/ 14/ 19 1009.2 5 SE WRIGHTSVLE 1308 64 62 270/ 10/ 16 1007.8 225 S CAPE HAT 1310 71 73 220/ 6/ 8 1010.8 41 SE CHARLESTON 1310 69 260/ 14/ 17 1010.5 $$

USA.gov is the U.S. government's official web portal to all federal, state and local government web resources and services.